Temp
23 22 23 26 30 31 29 29 29 28 28 27 28 28 25 25 26 26 22 21 21 21 21 21 21 21 21 21 21 21 21 22 22 22 23 23 23 23 23 23 23 22 22 22 22 22 22 22 21
26 25 26 27 31 30 29 29 29 29 27 28 27 27 26 24 24 23 23 21 22 22 21 21 22 22 22 22 21 22 21 21 22 22 23 22 23 23 22 23 23 23 22 22 22 21 21 22 21
26 26 29 29 29 30 29 29 29 28 28 28 27 27 26 24 23 24 22 21 21 21 21 21 22 22 22 22 22 21 21 21 22 22 22 22 22 22 23 23 23 22 22 22 21 21 22 22 22
27 28 29 31 31 30 30 29 29 28 28 28 28 26 25 24 24 23 22 22 22 21 22 21 21 21 22 22 21 21 21 22 22 22 22 22 22 23 23 23 23 22 22 21 21 21 21 21 21
27 29 31 31 30 30 30 30 29 29 28 28 27 25 24 23 23 22 22 22 22 22 22 21 21 22 21 21 21 21 21 22 22 22 22 22 22 23 22 22 22 22 22 22 21 21 21 21 21
30 29 32 32 30 30 30 30 29 28 27 27 27 26 25 23 23 23 22 22 23 22 22 22 21 21 21 21 22 22 22 22 23 23 23 22 22 22 23 22 22 22 22 21 21 21 21 21 21
31 31 31 31 30 30 30 30 29 28 27 27 28 27 24 24 23 23 22 22 23 22 22 22 22 21 22 22 21 22 23 23 24 23 23 23 23 23 23 23 23 22 22 21 21 22 22 22 22
31 32 31 31 31 31 30 30 29 29 28 28 28 26 25 25 23 23 22 22 22 22 22 22 22 22 22 22 21 22 23 23 23 23 23 23 23 23 23 23 22 22 22 22 22 22 22 22 22
31 32 32 32 31 32 31 30 29 29 27 28 28 27 27 24 23 23 23 23 22 22 22 22 22 22 21 21 22 23 23 23 23 23 23 23 22 22 22 22 22 23 22 22 22 22 22 22 22
32 32 33 34 33 32 31 31 29 28 28 28 27 26 25 23 23 24 23 23 23 23 22 22 22 22 22 22 22 22 22 22 22 22 22 22 22 22 23 22 22 23 22 22 22 22 22 22 22
32 33 33 33 33 33 31 30 30 29 28 29 27 25 25 24 24 24 24 24 24 23 23 22 22 21 22 21 22 22 22 22 22 22 22 22 23 23 22 22 22 22 22 22 22 22 22 21 21
33 34 34 34 32 32 31 32 30 29 30 30 28 26 25 25 25 25 24 24 24 23 23 22 22 21 21 22 22 22 22 22 22 22 23 23 23 23 23 22 22 22 21 22 21 21 21 21 20
33 34 34 34 32 33 32 31 31 29 30 29 27 26 26 26 25 25 24 24 23 23 23 23 22 21 21 21 22 22 22 22 22 22 23 22 23 23 23 23 22 22 21 21 21 21 21 20 21
34 33 33 33 32 31 32 30 31 30 28 27 27 26 26 26 25 25 24 24 23 23 23 22 22 21 21 21 22 22 22 22 22 22 22 23 23 23 23 23 22 21 22 21 20 20 20 20 20
33 32 32 32 32 31 31 29 30 30 28 27 27 27 26 26 25 25 25 24 23 23 23 23 22 22 21 21 23 23 22 22 22 22 23 23 23 23 23 23 23 22 21 21 20 20 20 20 20
34 33 33 31 32 30 33 33 31 29 28 27 27 27 26 26 26 25 25 25 24 23 23 23 23 23 22 22 23 22 22 22 22 23 23 23 23 23 22 22 22 22 21 20 20 20 20 21 20
32 34 33 31 33 31 32 33 31 29 29 28 28 27 27 27 26 26 25 25 24 23 23 23 23 23 22 22 23 24 23 24 24 23 23 23 23 23 23 22 22 22 21 21 20 20 20 21 21
34 33 33 33 32 32 31 32 29 29 29 29 28 28 28 27 27 26 25 25 25 24 23 23 23 22 22 24 24 23 23 23 23 23 23 23 23 22 23 22 22 22 20 20 20 19 19 20 20
35 34 34 33 32 32 32 32 29 29 29 29 28 28 28 28 28 27 26 25 25 24 24 23 23 23 24 23 23 23 23 22 22 23 23 22 22 22 22 22 22 21 20 20 19 20 20 21 19
34 34 34 33 32 33 31 32 31 29 29 29 29 28 28 28 28 27 26 26 25 25 24 23 23 23 23 23 22 23 23 22 22 22 22 22 22 22 22 22 21 20 20 19 19 19 20 20 19
34 34 34 34 32 31 32 33 30 29 29 29 29 30 29 29 28 28 27 26 26 25 24 23 23 24 23 22 22 22 22 22 22 22 22 21 22 22 21 21 20 20 20 21 19 19 19 21 19
34 34 34 33 33 33 33 33 32 31 29 29 29 29 29 29 29 29 27 26 26 25 24 24 24 24 23 22 22 22 23 24 23 22 22 21 22 21 21 21 21 20 20 20 20 19 19 19 20
35 34 34 34 34 31 30 32 35 30 30 30 30 30 30 30 30 29 28 27 27 26 25 24 24 24 23 22 23 22 23 23 23 22 21 21 21 21 21 21 21 21 20 20 20 19 18 19 19
32 32 31 31 33 31 33 32 35 31 31 33 32 31 30 30 30 30 29 28 27 26 25 24 24 25 24 23 22 22 23 23 22 22 22 22 21 21 21 22 21 21 20 20 19 19 18 18 18
33 33 31 31 30 32 31 31 34 35 33 34 34 32 31 31 30 30 29 28 27 26 25 25 24 24 22 22 22 22 22 22 22 22 22 22 21 20 21 22 21 20 20 20 19 19 18 19 19
32 34 33 30 31 32 28 31 34 35 36 33 34 33 32 32 31 30 29 28 27 26 25 25 24 24 23 23 23 23 23 23 22 22 22 22 22 21 22 22 21 20 20 20 19 19 19 19 19
32 31 36 34 29 32 33 32 33 34 34 33 34 33 32 32 32 31 30 29 27 26 25 25 25 24 24 23 23 22 22 22 22 22 23 21 22 21 22 22 21 20 20 20 19 20 19 19 19
33 34 32 32 31 30 32 31 35 35 36 35 32 33 33 32 31 31 31 29 28 27 27 26 25 25 25 23 23 23 22 23 23 23 23 22 21 22 22 21 20 20 20 20 19 19 19 19 19
32 32 30 34 33 33 32 33 34 35 36 36 34 34 33 32 31 31 30 29 28 28 28 26 26 25 25 24 23 23 22 22 23 23 23 24 22 22 22 21 21 20 20 20 19 19 19 19 19
34 33 33 33 31 31 33 34 35 34 36 36 36 34 33 31 31 31 30 29 29 28 28 27 27 26 25 25 23 23 22 25 25 25 22 23 24 22 22 21 21 20 19 19 19 19 19 19 19
Height
769 769 770 770 782 779 801 801 788 797 796 790 788 793 803 804 805 819 814 816 817 819 822 825 826 828 831 833 835 837 839 839 843 844 846 848 850 851 852 851 852 853 854 855 854 854 854 853 853
766 768 767 767 784 797 804 792 796 792 792 790 793 796 801 811 806 810 815 818 819 821 824 828 829 830 833 835 838 839 841 844 845 847 849 852 853 853 854 854 854 856 857 856 856 856 856 854 854
767 767 769 779 791 799 802 792 791 790 788 790 797 796 802 811 810 812 816 819 821 822 826 828 831 832 834 836 840 842 844 846 848 850 852 853 854 854 855 855 857 857 857 858 858 858 856 855 855
769 770 771 784 794 791 790 790 788 791 790 790 794 806 805 809 811 814 818 820 823 825 828 830 832 834 836 839 841 844 846 847 849 851 853 854 855 856 856 857 858 858 859 860 860 858 857 857 856
767 769 781 790 791 785 783 784 786 792 793 794 794 809 811 812 813 816 819 822 824 827 830 832 834 836 838 841 843 845 847 848 850 852 854 855 857 857 858 859 859 860 860 860 860 859 858 857 856
770 772 784 794 793 788 786 783 787 792 795 797 799 804 812 814 816 818 821 824 826 829 832 834 836 838 840 842 844 847 848 850 852 853 855 857 858 859 860 860 860 861 861 860 860 859 858 857 857
770 778 791 791 793 792 789 782 788 794 798 800 794 807 812 814 816 819 823 826 828 830 833 836 839 840 842 844 846 848 849 851 852 854 855 857 858 859 860 860 860 860 860 860 859 858 858 857 857
764 770 786 785 790 790 783 783 785 789 798 794 795 807 812 810 816 821 824 827 830 832 835 837 839 842 844 847 848 849 850 852 854 855 857 858 859 860 861 860 860 860 861 860 860 859 858 857 857
761 777 786 784 784 778 776 784 785 784 793 794 795 797 800 809 816 821 825 828 830 833 835 838 840 842 844 846 848 850 852 854 855 857 858 859 860 861 861 861 860 861 860 860 860 859 859 858 857
764 776 772 761 761 768 771 776 784 791 793 795 798 799 804 811 815 818 822 825 828 831 834 837 840 842 844 847 848 850 852 854 855 857 858 858 859 860 860 860 860 859 859 860 859 858 858 857 857
760 768 759 757 756 758 769 777 778 788 797 790 796 800 804 809 814 817 820 823 826 830 834 837 840 842 844 846 848 850 852 853 854 856 857 858 858 858 859 859 859 859 859 860 859 858 858 856 856
766 754 753 753 755 759 768 768 781 783 783 781 790 795 803 808 811 815 819 823 826 830 834 836 838 841 843 845 848 849 851 853 854 855 855 857 857 857 856 857 858 858 858 858 858 858 856 856 855
760 753 750 747 753 757 761 770 776 782 779 782 790 797 801 807 811 815 819 822 825 828 831 834 836 839 842 844 846 847 849 851 852 853 853 854 855 855 855 855 855 856 856 857 857 856 856 855 855
748 750 751 750 757 761 768 776 775 778 780 785 789 795 800 805 809 814 818 821 824 827 829 832 834 837 840 842 843 845 847 848 849 850 850 851 852 855 854 854 854 854 855 855 855 854 855 854 853
746 759 757 759 759 767 766 787 782 775 781 788 790 795 800 803 808 811 814 818 821 824 827 829 832 834 836 838 840 843 844 846 846 847 847 848 849 850 852 852 853 853 854 854 853 853 852 852 852
754 755 772 765 760 765 762 780 773 775 780 787 789 793 797 801 804 808 811 815 818 822 824 827 830 831 834 836 838 840 841 842 843 845 846 846 848 850 850 851 851 851 851 852 852 852 852 851 850
760 768 771 773 756 765 768 774 770 772 777 785 788 789 793 798 801 804 808 811 814 817 820 823 826 829 831 833 835 837 839 839 841 841 841 843 844 846 847 848 849 848 848 850 850 851 850 850 849
766 768 765 765 765 765 773 774 774 775 776 780 784 786 790 792 793 799 804 808 811 814 817 820 823 825 827 830 833 835 836 838 839 838 839 841 842 844 845 845 845 846 848 849 849 850 850 850 849
742 753 757 759 756 766 772 773 778 777 779 779 780 783 785 785 790 796 800 804 808 811 813 816 818 820 824 827 830 832 833 835 836 837 839 840 841 842 842 844 845 845 847 848 849 850 850 849 848
747 751 755 759 757 762 775 775 771 772 773 773 775 778 780 782 786 791 795 799 802 806 808 811 814 817 819 823 826 828 830 831 833 835 835 837 839 840 841 842 843 844 846 847 847 848 849 849 848
747 751 753 755 761 763 768 772 774 767 768 770 770 769 772 775 778 783 789 792 796 800 803 806 808 811 815 819 823 824 827 828 830 832 834 835 837 838 839 840 842 843 844 845 845 846 847 847 847
749 735 740 753 764 780 763 784 764 760 766 764 763 765 765 768 772 776 781 786 790 794 798 801 804 807 811 814 818 820 823 826 828 830 832 833 834 836 837 839 840 841 842 842 843 844 845 846 846
738 732 741 746 756 773 779 786 750 760 763 753 748 752 755 757 761 766 771 777 783 788 792 795 799 803 806 809 813 817 820 823 825 827 828 831 832 834 835 837 838 840 841 842 842 843 844 845 846
733 742 755 759 761 787 763 772 753 759 745 732 735 739 743 747 751 758 765 772 777 782 785 789 792 795 800 804 808 812 815 818 821 824 826 828 829 830 832 834 836 838 839 840 841 842 843 844 845
730 742 776 785 788 782 761 773 744 724 721 716 721 728 731 738 745 749 756 762 767 773 777 781 785 788 794 798 802 805 810 813 815 818 821 824 826 827 828 831 833 836 838 839 840 841 841 841 842
734 731 753 787 784 772 774 770 736 709 704 710 711 715 724 730 734 740 745 751 758 764 769 773 777 782 787 791 795 799 804 807 810 812 815 818 821 822 824 827 829 832 834 836 838 839 839 839 840
732 741 716 741 767 761 747 744 724 707 708 706 706 711 714 717 722 727 736 743 748 754 758 762 769 774 779 784 789 794 798 801 804 808 811 813 815 818 820 822 825 828 830 832 834 835 836 836 837
712 710 744 743 765 777 753 754 735 715 705 698 707 703 700 704 712 718 724 733 739 744 749 756 760 766 771 779 783 787 791 795 800 803 806 810 812 813 815 820 823 825 827 830 832 833 833 834 835
719 724 727 717 731 745 758 739 709 704 694 691 692 690 690 697 701 705 714 723 728 734 741 746 754 760 767 771 775 780 785 789 795 800 798 798 809 810 813 815 819 821 823 825 827 830 831 831 831
691 704 708 724 743 736 732 726 688 692 684 682 679 681 685 689 692 700 708 715 723 729 735 741 746 752 755 760 767 772 776 780 781 784 798 804 800 809 810 810 814 817 818 820 823 825 827 828 829
Wind_Speed
10 11 9 6 1 4 6 5 5 7 5 2 4 5 7 6 3 8 9 8 13 11 13 17 22 20 18 19 19 19 20 23 22 21 20 17 14 10 8 9 8 8 8 8 9 8 8 8 9
7 1 2 1 3 5 4 4 10 4 8 12 9 7 4 5 5 11 11 11 12 13 16 17 19 20 18 20 19 18 19 20 20 20 19 13 10 8 6 6 6 6 7 8 7 6 7 8 8
6 2 2 2 2 5 4 5 9 13 8 4 5 8 3 4 9 13 13 15 14 15 17 16 16 17 17 19 18 18 18 18 17 17 14 10 9 8 6 5 4 5 6 6 4 5 6 7 8
4 2 1 2 7 5 4 10 15 11 6 5 10 9 5 7 8 9 18 16 16 16 16 15 15 15 17 17 17 18 19 18 15 14 13 12 10 7 5 4 4 4 4 4 4 6 7 7 7
3 1 2 3 6 5 10 12 10 5 5 7 3 6 7 3 11 21 18 17 18 16 15 14 16 16 16 16 17 19 18 15 15 14 12 10 7 5 4 3 3 3 3 4 5 6 6 7 7
2 1 1 4 4 6 7 12 8 3 6 9 12 11 6 9 17 18 18 17 16 16 15 15 16 17 17 17 17 19 18 14 14 11 10 8 6 4 3 1 2 3 3 4 6 7 7 7 7
2 2 3 5 6 5 6 11 6 7 7 5 14 9 6 13 18 18 17 17 15 15 15 14 15 16 16 17 17 18 17 15 11 9 8 7 6 4 2 1 2 3 3 5 6 7 7 7 5
1 1 4 4 9 6 10 9 7 8 5 12 9 6 9 18 19 18 17 16 14 14 14 15 15 15 15 15 15 15 14 12 11 10 8 7 5 4 3 3 5 5 5 5 6 5 5 6 5
3 2 5 6 9 8 14 9 6 6 11 6 8 7 12 24 22 20 18 16 14 14 14 15 15 15 16 14 13 12 11 11 11 8 7 5 4 4 4 5 7 6 5 4 5 3 5 6 5
4 3 5 8 9 11 17 14 13 6 11 7 4 9 24 26 24 22 21 19 18 17 16 16 16 15 15 12 12 11 11 10 11 9 8 6 6 6 7 7 7 5 4 3 3 4 5 6 5
4 9 4 5 8 16 17 13 11 8 13 12 13 17 24 25 24 22 21 20 20 18 16 16 15 14 14 12 11 12 10 10 10 10 9 8 7 6 5 3 2 1 2 2 2 4 4 4 5
8 8 9 5 11 16 19 16 11 13 5 11 15 22 24 19 22 22 21 20 19 17 15 16 16 15 15 14 13 12 11 10 9 10 11 9 8 7 5 3 2 1 2 2 2 4 5 6 8
8 8 8 8 15 14 16 17 12 13 4 10 18 22 23 20 22 21 20 19 19 20 18 17 17 16 15 16 14 13 13 12 12 12 13 11 11 8 7 6 4 4 3 2 4 5 6 8 8
4 4 3 9 13 13 16 9 10 9 9 14 20 23 21 20 23 20 19 19 20 20 20 19 19 18 16 17 18 15 14 14 13 13 13 15 15 10 9 8 6 4 6 4 5 5 5 6 7
7 6 10 10 15 8 16 8 13 10 13 15 18 20 19 20 22 22 22 21 21 21 20 22 20 19 19 19 19 18 15 14 14 14 15 13 13 12 9 10 7 6 6 7 6 6 4 4 5
3 5 6 8 14 9 15 13 13 15 17 17 19 19 18 19 23 22 21 21 20 19 20 20 19 19 19 18 19 16 15 15 15 16 14 15 14 13 11 10 8 8 7 6 5 5 5 4 5
4 8 9 9 12 9 13 6 11 17 17 17 18 19 17 17 20 23 23 22 21 22 21 21 20 19 19 20 19 20 17 17 14 13 15 13 12 12 10 9 9 8 7 7 4 2 4 6 7
12 9 8 10 12 10 13 6 9 15 18 18 18 18 18 19 21 23 23 23 22 21 21 20 21 20 21 19 17 16 18 16 15 13 12 12 12 12 11 9 7 7 5 2 2 3 4 5 7
15 15 15 9 11 12 13 11 7 13 16 17 17 18 19 20 22 23 23 23 22 21 21 21 21 23 21 17 17 15 14 13 12 15 15 14 13 11 10 7 6 5 4 3 3 3 4 4 4
15 19 16 7 10 12 9 14 10 15 20 19 19 19 19 18 17 22 25 24 25 24 24 23 23 22 24 20 15 13 12 12 11 10 12 12 12 12 11 8 6 6 4 4 4 3 3 4 3
14 19 16 14 9 3 7 15 10 13 17 17 19 17 19 19 20 19 25 26 25 25 25 25 26 26 23 20 15 14 12 11 8 10 10 13 13 12 10 8 6 5 5 4 2 1 2 3 1
18 14 15 16 12 13 11 14 12 17 18 22 21 21 20 20 19 18 22 26 27 27 25 25 28 28 23 23 19 19 17 14 12 11 11 10 11 11 11 9 7 6 6 4 2 2 1 1 2
11 12 17 15 16 7 8 6 11 9 17 24 25 24 24 22 22 21 23 27 27 27 25 25 29 29 25 25 23 20 18 15 10 9 9 11 12 13 12 10 8 7 7 6 5 3 2 2 2
10 11 6 5 8 9 14 13 9 9 16 25 22 24 25 23 22 21 26 25 26 26 26 26 29 34 31 28 26 23 20 18 14 11 11 12 14 15 16 13 12 10 9 9 6 5 4 3 3
14 13 6 9 7 9 5 11 17 11 17 22 20 26 26 24 21 21 21 25 28 28 28 27 30 31 28 28 27 26 24 21 19 16 14 14 15 15 16 15 15 13 12 9 8 7 5 5 5
19 21 12 16 10 12 5 11 8 16 16 14 16 18 22 24 22 23 23 27 28 29 30 29 28 29 27 28 29 29 28 23 22 21 17 17 18 17 16 16 15 16 13 12 11 7 6 7 7
9 13 15 14 2 6 6 5 10 14 13 11 17 16 22 25 25 26 24 29 29 30 33 34 32 31 29 28 28 28 28 26 23 23 23 20 22 16 17 16 17 17 15 13 10 8 7 7 9
12 13 11 7 18 17 9 5 7 6 11 12 12 19 23 24 25 24 23 30 31 34 34 32 34 33 32 27 28 29 28 29 27 25 23 21 22 21 19 19 19 16 15 13 11 10 10 9 10
9 8 2 6 7 14 15 13 8 13 13 12 15 19 19 22 23 23 22 31 35 35 32 33 31 31 29 30 31 29 26 29 27 27 30 26 25 24 22 22 20 17 16 14 13 13 12 12 12
19 19 18 12 12 5 9 13 4 14 14 11 13 12 14 20 20 21 22 29 30 31 30 31 32 33 36 35 31 30 31 36 38 37 29 25 26 26 26 23 21 19 16 14 14 13 13 13 13
Wind_Direction
144 164 180 209 177 91 97 113 119 138 135 54 97 121 100 49 37 112 138 146 146 137 141 142 146 144 144 138 141 137 142 152 156 153 148 145 139 127 114 104 92 86 87 79 69 61 53 40 32
133 179 172 18 63 108 88 116 134 121 112 107 89 101 60 78 80 121 132 151 147 147 151 154 152 149 150 149 151 145 144 150 154 154 154 147 142 142 123 102 88 88 84 69 58 48 38 27 22
99 37 307 61 48 58 88 135 124 120 134 124 106 56 54 89 118 132 142 146 145 148 157 160 160 157 151 153 153 147 142 140 143 150 155 152 146 141 127 104 94 87 74 67 52 40 29 15 8
145 146 125 51 75 66 87 142 135 129 100 76 114 82 89 116 133 142 144 144 142 145 153 160 155 151 149 153 153 152 144 138 143 149 153 148 146 138 132 122 97 76 65 56 34 23 8 358 351
58 142 123 82 57 69 116 140 149 123 107 120 137 120 108 78 126 138 142 143 142 142 146 151 153 150 149 150 149 156 154 145 150 149 152 153 156 149 141 123 78 44 42 35 17 2 354 342 336
123 331 98 80 80 97 122 150 142 110 132 128 117 121 127 135 142 146 144 143 143 143 148 152 158 155 155 151 153 159 168 161 155 153 159 164 172 179 157 100 13 7 20 1 358 347 349 343 338
166 177 110 130 126 142 139 161 160 131 143 139 136 123 125 162 155 150 146 147 146 148 152 156 160 161 158 162 160 162 165 166 164 163 161 168 188 196 198 285 330 333 326 332 340 352 352 7 7
147 258 125 165 166 147 149 151 151 152 145 131 159 165 167 172 158 151 148 150 151 156 163 164 160 158 161 165 165 168 170 169 171 170 170 187 204 228 260 283 308 310 318 328 334 359 359 13 18
183 196 192 185 175 157 156 159 157 135 145 181 179 157 152 159 157 153 153 159 163 167 169 168 169 169 168 169 172 167 168 173 174 181 196 207 225 241 263 277 300 301 306 346 341 12 19 356 2
215 244 207 193 188 171 168 167 153 166 171 186 142 133 145 156 163 162 167 172 176 175 176 178 175 176 174 176 176 181 183 191 197 204 213 222 234 256 269 274 308 285 275 345 339 348 353 20 19
181 242 208 212 190 159 165 166 163 157 190 191 175 157 157 163 171 175 177 180 181 181 179 183 180 182 181 182 185 194 200 204 210 216 215 226 234 252 270 269 308 67 323 330 348 356 356 1 353
229 240 226 168 171 163 170 158 181 183 182 182 169 164 163 170 176 181 182 182 185 190 191 191 193 192 194 193 195 196 201 209 215 222 225 225 242 251 244 242 221 297 335 296 319 329 329 334 334
230 251 217 195 169 175 156 174 170 203 184 162 155 165 170 177 182 188 190 191 191 196 195 196 198 199 203 204 207 210 217 223 223 228 233 234 244 251 247 243 246 282 297 301 298 309 317 322 325
170 230 169 167 156 158 165 164 171 184 145 153 161 172 175 181 187 190 194 196 198 200 200 198 202 203 206 209 214 217 221 228 231 230 231 237 243 249 255 246 256 273 290 291 299 296 309 316 321
130 108 97 143 156 152 141 153 211 166 161 161 168 175 180 188 188 194 196 199 201 206 205 205 204 207 210 213 218 223 227 229 232 233 233 237 242 252 254 254 272 268 277 293 303 308 304 307 319
136 144 166 172 165 156 184 209 196 173 168 173 174 180 186 193 196 199 200 204 206 205 208 208 207 210 213 216 217 223 231 233 241 243 249 244 243 247 243 255 259 266 267 286 298 297 303 309 316
186 200 203 168 191 158 203 212 190 178 183 182 184 185 190 193 204 205 206 207 206 207 208 209 208 211 213 218 218 226 235 243 250 251 254 251 253 248 247 259 261 265 260 282 284 282 300 310 318
190 209 203 177 180 190 202 205 165 186 189 192 193 193 196 199 206 204 209 212 213 213 214 214 212 215 218 221 229 226 234 235 240 242 247 249 250 251 253 265 271 236 255 244 253 272 290 302 311
205 212 197 175 164 188 219 245 206 194 207 200 202 201 203 209 206 210 211 214 217 218 217 216 213 218 216 216 218 226 229 230 235 245 247 247 251 249 252 258 247 234 208 222 245 278 297 302 313
203 212 208 150 154 191 198 234 223 201 216 212 207 206 212 212 206 211 216 214 215 219 220 219 220 220 221 220 218 217 217 232 233 234 248 244 237 244 249 233 203 198 219 229 253 252 287 303 320
207 205 200 197 168 136 194 242 222 219 221 220 224 222 217 215 209 208 211 214 213 216 218 219 222 224 223 219 217 221 225 231 235 240 235 232 235 235 217 213 208 223 218 218 219 276 254 293 326
213 217 210 193 179 226 199 259 224 218 214 217 223 221 220 216 215 212 209 211 213 216 217 219 225 226 222 219 212 212 218 225 232 225 223 215 217 210 211 215 228 218 203 210 268 285 240 252 305
215 188 192 193 199 186 201 239 257 202 220 223 218 220 222 217 213 213 211 211 212 215 213 216 224 225 219 218 214 214 221 229 228 218 212 211 213 208 212 220 223 224 210 233 264 228 237 242 287
145 123 123 118 186 225 216 215 228 191 220 229 218 215 218 217 213 214 213 210 213 213 213 214 217 225 223 221 218 217 218 217 217 216 215 216 210 208 216 219 221 223 228 237 233 215 222 232 231
194 170 176 202 202 229 222 213 247 234 235 227 214 214 212 213 214 209 205 206 209 208 210 211 214 219 217 216 217 218 220 216 217 216 216 211 206 209 217 219 225 223 233 234 213 210 212 209 209
193 199 205 208 209 221 170 217 248 236 259 235 234 219 213 213 210 212 207 205 205 207 210 211 213 216 213 213 215 218 220 216 215 217 213 211 211 211 216 222 224 216 223 212 205 218 224 223 223
180 215 228 233 62 232 193 243 274 262 248 222 219 206 209 210 208 209 205 205 202 204 208 208 210 215 214 213 212 214 217 214 213 215 222 216 213 207 213 215 207 209 210 204 209 223 232 235 234
207 176 199 217 227 235 216 238 240 248 252 231 207 212 216 206 206 205 205 202 203 207 210 209 211 213 215 212 213 214 214 218 218 218 221 220 214 210 211 206 206 212 212 217 227 235 237 240 244
192 199 220 244 235 234 238 238 214 236 247 242 229 221 216 204 202 203 200 201 203 207 207 207 207 210 212 214 214 213 212 215 218 226 222 212 217 214 212 208 210 213 215 220 232 241 247 248 251
232 219 209 222 202 230 252 230 195 228 251 248 246 231 223 205 201 200 198 201 205 208 209 208 209 210 213 213 213 213 211 218 215 216 223 225 211 220 213 212 214 218 215 216 228 239 248 246 253